User: anonymous   Login
Location: Unspecified
(0.0000°N, 0.0000°E)
Time: 00:46:18
(UTC+00:00)
Language:

STARLINK-31541 - Orbit

View from above orbital plane
View from above orbital plane
View from above satellite
View from above satellite

Ground track
Ground track

The orbit is defined by the following mean orbital elements,

1 59633U          26145.18882601 +.00000000 +00000-0 +21735-4 0 00003
2 59633  43.0005  60.6643 0000869 272.0844  87.9908 15.27574768    08
Epoch (UTC): 25 May 2026 04:31:54
Eccentricity: 0.0000869
inclination: 43.0005°
perigee height: 482 km
apogee height: 484 km
right ascension of ascending node: 60.6643°
argument of perigee: 272.0844°
revolutions per day: 15.27574768
mean anomaly at epoch: 87.9908°

The dashed part of the orbit path shows where the satellite is in the earth's shadow,  

DLR